{"data":{"norad_id":55400,"epoch":"2026-05-25T04:29:10.274208Z","epoch_age_seconds":69575,"freshness":"FRESH","line1":"1 55400U 23014K   26145.18692447  .00000294  00000+0  32468-4 0  9994","line2":"2 55400  69.9993 231.5836 0003493 269.5002  90.5757 14.98330982183510","mean_motion":14.98330982,"eccentricity":0.0003493,"inclination_deg":69.9993,"raan_deg":231.5836,"arg_perigee_deg":269.5002,"mean_anomaly_deg":90.5757,"bstar":3.2468e-5,"rev_number":18351,"period_min":96.106936137559,"perigee_km":569.62515287601,"apogee_km":574.48055550815,"semimajor_km":6950.1898541921,"source":"CELESTRAK","updated_at":"2026-05-25T13:38:17.793959Z"}}